Volver al catálogo

FLYING LAPTOP

ActivoCienciaSSO
NORAD 42831·PAYLOAD·🇩🇪 Germany

Lanzado Jul 14, 2017 desde Baikonur Cosmodrome

Loading…

Próximos Pases (próximas 24 horas)

TLE

ActualizadoSource: Space-Track

Época: Sep 14, 2026, 15:00 UTC

1 42831U 17042G   26257.62553725  .00001957  00000-0  15508-3 0  9993
2 42831  97.5006  49.9555 0016414 174.9593 185.1800 15.01589511499874

Sigue FLYING LAPTOP en tiempo real con AllMySat

Download on the App Store